Weather History for Zephyrhills, FL

Change the Weather History Date:

Sunday, March 10, 2013

  Actual Average (KPCM) Record (KPCM)
Temperature  
Mean Temperature 66 °F -  
Max Temperature 80 °F 78 °F 90 °F (1967)
Min Temperature 51 °F 53 °F 32 °F (1932)
Growing Degree Days 16 (Base 50)    
Moisture  
Dew Point 49 °F    
Average Humidity 61    
Maximum Humidity 100    
Minimum Humidity 28    
Precipitation  
Precipitation 0.00 in - - ()
Sea Level Pressure  
Sea Level Pressure 30.14 in    
Wind  
Wind Speed 8 mph (East)    
Max Wind Speed 17 mph    
Max Gust Speed 24 mph    
Visibility 10 miles    
Events      
Averages and records for this station are not official NWS values.
T = Trace of Precipitation, MM = Missing Value Source: NWS Daily Summary

Daily Weather History Graph

Daily Weather History Graph

Search for Another Location

Airport:

Trip Planner

Search our weather history database for the weather conditions in past years. The results will help you decide how hot, cold, wet, or windy it might be!

Date:

Astronomy

Mar. 10, 2013 Rise Set
Actual Time 7:43 AM EDT 7:34 PM EDT
Civil Twilight 7:20 AM EDT 7:57 PM EDT
Nautical Twilight 6:52 AM EDT 8:25 PM EDT
Astronomical Twilight 6:25 AM EDT 8:52 PM EDT
Moon 6:39 AM EDT (3/10) 6:41 PM EDT (3/10)
Length of Visible Light 12h 37m
Length of Day
11h 50m
Waning Crescent, 2% of the Moon is Illuminated
Mar 10
Waning Crescent
Mar 11
New
Mar 19
First Quarter
Mar 27
Full
Apr 3
Last Quarter

Hourly Weather History & Observations

Time (EDT) Temp. Dew Point Humidity Pressure Visibility Wind Dir Wind Speed Gust Speed Precip Events Conditions
12:15 AM 57.2 °F 46.4 °F 67% 30.19 in 10.0 mi ENE 5.8 mph - N/A   Clear
12:35 AM 55.4 °F 48.2 °F 77% 30.20 in 10.0 mi ENE 4.6 mph - N/A   Clear
12:55 AM 55.4 °F 50.0 °F 82% 30.19 in 10.0 mi ENE 5.8 mph - N/A   Clear
1:15 AM 55.4 °F 50.0 °F 82% 30.18 in 10.0 mi NE 5.8 mph - N/A   Clear
1:35 AM 55.4 °F 50.0 °F 82% 30.18 in 10.0 mi ENE 4.6 mph - N/A   Clear
1:55 AM 55.4 °F 50.0 °F 82% 30.17 in 10.0 mi ENE 6.9 mph - N/A   Clear
3:15 AM 55.4 °F 51.8 °F 88% 30.16 in 10.0 mi ENE 6.9 mph - N/A   Clear
3:35 AM 55.4 °F 51.8 °F 88% 30.15 in 10.0 mi ENE 5.8 mph - N/A   Clear
3:55 AM 55.4 °F 51.8 °F 88% 30.16 in 10.0 mi ENE 5.8 mph - N/A   Clear
4:15 AM 55.4 °F 51.8 °F 88% 30.16 in 10.0 mi ENE 4.6 mph - N/A   Clear
4:35 AM 55.4 °F 51.8 °F 88% 30.15 in 10.0 mi ENE 5.8 mph - N/A   Clear
4:55 AM 55.4 °F 51.8 °F 88% 30.15 in 10.0 mi ENE 5.8 mph - N/A   Clear
5:15 AM 55.4 °F 51.8 °F 88% 30.15 in 10.0 mi ENE 5.8 mph - N/A   Clear
5:35 AM 55.4 °F 51.8 °F 88% 30.15 in 10.0 mi ENE 5.8 mph - N/A   Clear
5:55 AM 53.6 °F 51.8 °F 94% 30.15 in 10.0 mi ENE 4.6 mph - N/A   Clear
6:15 AM 53.6 °F 51.8 °F 94% 30.16 in 10.0 mi ENE 4.6 mph - N/A   Clear
6:35 AM 53.6 °F 51.8 °F 94% 30.16 in 10.0 mi ENE 3.5 mph - N/A   Clear
6:55 AM 51.8 °F 51.8 °F 100% 30.16 in 10.0 mi ENE 4.6 mph - N/A   Clear
7:15 AM 51.8 °F 51.8 °F 100% 30.16 in 10.0 mi ENE 4.6 mph - N/A   Clear
7:35 AM 53.6 °F 51.8 °F 94% 30.17 in 10.0 mi ENE 4.6 mph - N/A   Clear
8:15 AM 55.4 °F 51.8 °F 88% 30.18 in 10.0 mi East 4.6 mph - N/A   Clear
8:35 AM 55.4 °F 51.8 °F 88% 30.19 in 10.0 mi ENE 4.6 mph - N/A   Clear
8:55 AM 57.2 °F 53.6 °F 88% 30.20 in 10.0 mi ENE 4.6 mph - N/A   Clear
9:15 AM 60.8 °F 53.6 °F 77% 30.20 in 10.0 mi ENE 8.1 mph - N/A   Clear
9:35 AM 62.6 °F 51.8 °F 68% 30.20 in 10.0 mi East 5.8 mph - N/A   Clear
9:55 AM 64.4 °F 51.8 °F 64% 30.19 in 10.0 mi East 5.8 mph - N/A   Clear
10:15 AM 66.2 °F 51.8 °F 60% 30.20 in 10.0 mi East 6.9 mph - N/A   Clear
10:35 AM 68.0 °F 50.0 °F 52% 30.20 in 10.0 mi East 9.2 mph - N/A   Clear
10:55 AM 69.8 °F 50.0 °F 49% 30.19 in 10.0 mi East 13.8 mph 18.4 mph N/A   Clear
11:15 AM 71.6 °F 50.0 °F 46% 30.18 in 10.0 mi ESE 15.0 mph 18.4 mph N/A   Clear
11:35 AM 71.6 °F 46.4 °F 41% 30.15 in 10.0 mi ESE 16.1 mph 24.2 mph N/A   Clear
11:55 AM 73.4 °F 44.6 °F 36% 30.14 in 10.0 mi East 17.3 mph 23.0 mph N/A   Clear
12:15 PM 75.2 °F 44.6 °F 34% 30.14 in 10.0 mi ESE 15.0 mph 24.2 mph N/A   Clear
12:35 PM 77.0 °F 46.4 °F 34% 30.14 in 10.0 mi ESE 15.0 mph 23.0 mph N/A   Clear
12:55 PM 75.2 °F 46.4 °F 36% 30.14 in 10.0 mi ESE 12.7 mph 17.3 mph N/A   Clear
1:35 PM 78.8 °F 44.6 °F 30% 30.14 in 10.0 mi SE 17.3 mph - N/A   Mostly Cloudy
1:55 PM 77.0 °F 44.6 °F 32% 30.13 in 10.0 mi ESE 13.8 mph 20.7 mph N/A   Mostly Cloudy
2:15 PM 77.0 °F 46.4 °F 34% 30.12 in 10.0 mi ESE 15.0 mph 18.4 mph N/A   Mostly Cloudy
2:35 PM 77.0 °F 46.4 °F 34% 30.11 in 10.0 mi SE 10.4 mph 18.4 mph N/A   Mostly Cloudy
2:55 PM 77.0 °F 46.4 °F 34% 30.10 in 10.0 mi East 11.5 mph 16.1 mph N/A   Mostly Cloudy
3:15 PM 77.0 °F 44.6 °F 32% 30.10 in 10.0 mi East 12.7 mph 18.4 mph N/A   Scattered Clouds
3:35 PM 77.0 °F 44.6 °F 32% 30.10 in 10.0 mi SE 10.4 mph - N/A   Scattered Clouds
3:55 PM 78.8 °F 44.6 °F 30% 30.10 in 10.0 mi East 6.9 mph 10.4 mph N/A   Scattered Clouds
4:15 PM 80.6 °F 44.6 °F 28% 30.09 in 10.0 mi ESE 15.0 mph 18.4 mph N/A   Scattered Clouds
4:35 PM 78.8 °F 44.6 °F 30% 30.09 in 10.0 mi ESE 11.5 mph 16.1 mph N/A   Scattered Clouds
4:55 PM 78.8 °F 44.6 °F 30% 30.09 in 10.0 mi SE 13.8 mph 17.3 mph N/A   Scattered Clouds
5:15 PM 78.8 °F 44.6 °F 30% 30.08 in 10.0 mi SE 16.1 mph 20.7 mph N/A   Scattered Clouds
5:35 PM 78.8 °F 44.6 °F 30% 30.08 in 10.0 mi East 9.2 mph - N/A   Scattered Clouds
5:55 PM 77.0 °F 44.6 °F 32% 30.08 in 10.0 mi ESE 12.7 mph - N/A   Clear
6:15 PM 77.0 °F 44.6 °F 32% 30.09 in 10.0 mi SE 9.2 mph - N/A   Clear
6:35 PM 77.0 °F 44.6 °F 32% 30.08 in 10.0 mi ESE 9.2 mph - N/A   Clear
6:55 PM 75.2 °F 46.4 °F 36% 30.09 in 10.0 mi ESE 9.2 mph - N/A   Clear
7:15 PM 73.4 °F 46.4 °F 38% 30.09 in 10.0 mi East 8.1 mph - N/A   Clear
7:35 PM 71.6 °F 46.4 °F 41% 30.10 in 10.0 mi East 8.1 mph - N/A   Clear
7:55 PM 69.8 °F 46.4 °F 43% 30.11 in 10.0 mi East 9.2 mph - N/A   Clear
8:15 PM 68.0 °F 50.0 °F 52% 30.11 in 10.0 mi East 9.2 mph - N/A   Clear
8:35 PM 68.0 °F 50.0 °F 52% 30.12 in 10.0 mi East 10.4 mph - N/A   Clear
8:55 PM 66.2 °F 51.8 °F 60% 30.12 in 10.0 mi East 6.9 mph - N/A   Clear
9:15 PM 66.2 °F 50.0 °F 56% 30.13 in 10.0 mi East 8.1 mph - N/A   Clear
9:35 PM 64.4 °F 51.8 °F 64% 30.13 in 10.0 mi East 8.1 mph - N/A   Clear
10:15 PM 62.6 °F 51.8 °F 68% 30.14 in 10.0 mi East 8.1 mph - N/A   Clear
10:35 PM 62.6 °F 51.8 °F 68% 30.14 in 10.0 mi East 6.9 mph - N/A   Clear
10:55 PM 62.6 °F 51.8 °F 68% 30.14 in 10.0 mi East 8.1 mph - N/A   Clear
11:15 PM 60.8 °F 51.8 °F 72% 30.14 in 10.0 mi East 4.6 mph - N/A   Clear
11:35 PM 60.8 °F 51.8 °F 72% 30.14 in 10.0 mi East 5.8 mph - N/A   Clear
11:55 PM 60.8 °F 51.8 °F 72% 30.14 in 10.0 mi ESE 4.6 mph - N/A   Clear
12:15 AM 60.8 °F 51.8 °F 72% 30.13 in 10.0 mi ESE 4.6 mph - N/A   Clear
12:35 AM 59.0 °F 51.8 °F 77% 30.13 in 10.0 mi East 4.6 mph - N/A   Clear